Location: Utrecht
(52.0917°N, 5.1178°E)
Time: 06:02:28
(UTC+02:00)

N. Korean satellite - Visible Passes

Search period start: 18 October 2017 00:00
Search period end: 28 October 2017 00:00
Orbit: 459 x 517 km, 97.2° (Epoch: 17 October)

Date Brightness Start Highest point End Pass type
(mag) Time Alt. Az. Time Alt. Az. Time Alt. Az.
18 Oct 6.6 19:10:33 10° SSE 19:13:59 52° ENE 19:17:25 10° N visible
18 Oct 9.8 20:45:50 10° SW 20:47:50 14° W 20:49:50 10° NW visible
19 Oct 9.0 20:21:23 10° SSW 20:24:19 24° W 20:27:14 10° NW visible
20 Oct 7.8 19:57:29 10° S 20:00:51 43° W 20:04:12 10° NNW visible
21 Oct 10.5 07:21:08 10° ENE 07:21:54 11° E 07:22:39 10° E visible
21 Oct 6.6 19:33:58 10° SSE 19:37:28 82° W 19:40:57 10° NNW visible
22 Oct 6.6 19:10:43 10° SSE 19:14:09 53° ENE 19:17:32 10° N visible
22 Oct 9.8 20:46:04 10° WSW 20:47:59 14° W 20:49:55 10° NW visible
23 Oct 9.0 20:21:34 10° SSW 20:24:26 24° W 20:27:20 10° NW visible
24 Oct 9.8 07:43:04 10° NE 07:45:36 19° E 07:48:09 10° SE visible
24 Oct 7.8 19:57:38 10° S 20:00:58 42° W 20:04:18 10° NNW visible
25 Oct 10.4 07:21:05 10° ENE 07:22:00 11° E 07:22:57 10° ESE visible
25 Oct 6.5 19:34:05 10° SSE 19:37:33 81° WSW 19:41:03 10° NNW visible
26 Oct 6.6 19:10:50 10° SSE 19:14:13 53° ENE 19:17:36 10° N visible
26 Oct 9.9 20:46:13 10° WSW 20:48:05 14° W 20:49:57 10° WNW visible
27 Oct 9.0 20:21:41 10° SSW 20:24:31 24° W 20:27:23 10° NW visible
